ISS (ZARYA) 1 25544U 98067A 10067.86878632 .00013253 00000-0 96217-4 0 7319 2 25544 51.6483 25.6247 0007782 28.7411 11.9386 15.73741103647672 SOYUZ-TMA 16 1 35940U 09053A 10067.49887853 .00013262 00000-0 96322-4 0 1154 2 35940 51.6482 27.5237 0007777 27.2866 76.2859 15.73730784647610 PROGRESS-M 03M 1 35948U 09056A 10067.49887853 .00013262 00000-0 96322-4 0 1537 2 35948 51.6482 27.5237 0007777 27.2866 76.2859 15.73730784 22794 SOYUZ-TMA 17 1 36129U 09074A 10067.49887853 .00013262 00000-0 96322-4 0 628 2 36129 51.6482 27.5237 0007777 27.2866 76.2859 15.73730784647610 PROGRESS-M 04M 1 36361U 10003A 10067.49887853 .00013262 00000-0 96322-4 0 327 2 36361 51.6482 27.5237 0007777 27.2866 76.2859 15.73730784647618